Location: Charbonni�res
(45.9952°N, 2.9982°E)
Time: 14:18:24
(UTC+00:00)

SJ 16-02 - Visible Passes

Search period start: 20 April 2021 00:00
Search period end: 30 April 2021 00:00
Orbit: 605 x 617 km, 75.0° (Epoch: 20 April)

Date Brightness Start Highest point End Pass type
(mag) Time Alt. Az. Time Alt. Az. Time Alt. Az.
20 Apr 4.2 00:10:38 10° ENE 00:10:38 10° ENE 00:10:42 10° ENE visible
20 Apr 1.8 01:47:37 57° N 01:47:37 57° N 01:51:17 10° NNE visible
21 Apr 3.7 00:25:14 17° ENE 00:25:14 17° ENE 00:26:53 10° NE visible
21 Apr 2.2 02:02:12 38° NW 02:02:12 38° NW 02:05:58 10° N visible
22 Apr 3.1 00:39:48 28° NE 00:39:48 28° NE 00:42:14 10° NE visible
22 Apr 2.9 02:16:46 24° WNW 02:16:49 24° WNW 02:20:25 10° N visible
23 Apr 2.5 00:54:21 40° NNE 00:54:21 40° NNE 00:57:17 10° NNE visible
23 Apr 3.5 02:31:19 14° WNW 02:31:59 15° NW 02:34:29 10° NNW visible
23 Apr 4.1 23:31:54 10° ENE 23:31:54 10° ENE 23:32:02 10° ENE visible
24 Apr 2.3 01:08:52 44° N 01:08:52 44° N 01:12:07 10° NNE visible
24 Apr 3.7 23:46:24 18° ENE 23:46:24 18° ENE 23:47:53 10° NE visible
25 Apr 2.6 01:23:22 33° NW 01:23:22 33° NW 01:26:44 10° N visible
26 Apr 3.1 00:00:52 27° NE 00:00:52 27° NE 00:03:09 10° NNE visible
26 Apr 3.2 01:37:50 21° NW 01:37:50 21° NW 01:41:08 10° N visible
27 Apr 2.6 00:15:19 39° NNE 00:15:19 39° NNE 00:18:09 10° NNE visible
27 Apr 3.7 01:52:17 13° WNW 01:52:54 13° NW 01:55:02 10° NNW visible
27 Apr 4.0 22:52:47 11° ENE 22:52:47 11° ENE 22:53:12 10° ENE visible
28 Apr 2.5 00:29:45 40° NNW 00:29:45 40° NNW 00:32:55 10° NNE visible
28 Apr 3.5 23:07:11 19° ENE 23:07:11 19° ENE 23:08:51 10° NE visible
29 Apr 2.9 00:44:09 29° NW 00:44:09 29° NW 00:47:30 10° N visible
29 Apr 2.9 23:21:34 31° NE 23:21:34 31° NE 23:24:03 10° NNE visible
